Regional Weather Roundup
Issued by NWS

Home | Current Version | Previous Version | Graphics & Text | Print | Product List | Glossary On
Versions: 1 2 3 4 5 6 7 8 9 10 11 12 13 14 15 16 17 18 19 20 21 22 23 24 25 26 27 28 29 30 31 32 33 34 35 36 37 38 39 40 41 42 43 44 45 46 47 48 49 50
354
ASUS43 KIND 131609
RWRIN

WEATHER ROUNDUP FOR INDIANA
NATIONAL WEATHER SERVICE INDIANAPOLIS IN
1100 AM EST WED DEC 13 2017

NOTE: "FAIR" INDICATES FEW OR NO CLOUDS BELOW 12,000 FEET WITH NO
SIGNIFICANT WEATHER AND/OR OBSTRUCTIONS TO VISIBILITY.

* - STATION DOES NOT REPORT WEATHER SUCH AS PRECIPITATION OR FOG.

+ - STATION NOT QUALITY CONTROLLED BY THE NATIONAL WEATHER SERVICE.
    USE DATA WITH CAUTION...ESPECIALLY DEWPOINT AND RELATIVE
    HUMIDITY OBSERVATIONS.

INZ001>003-010>013-019-020-131700-
NORTHWEST INDIANA

CITY           SKY/WX    TMP DP  RH WIND       PRES   REMARKS
GARY /AIRPORT/ CLOUDY    32  10  40 S14G28    29.48F WCI  22
KNOX *+        CLOUDY    28  14  54 S18       29.57F WCI  16
LA PORTE +     CLOUDY    26  13  58 S14G22    29.55F WCI  14
MICHIGAN CITY+ CLOUDY    28  12  50 S10G22    29.53F WCI  19
MONTICELLO +   CLOUDY    29   8  40 S12G18    29.59F WCI  20
RENSSELAER +   CLOUDY    32   3  29 S20G26    29.53F WCI  20
VALPARAISO     CLOUDY    29  13  51 S17G30    29.52F WCI  17

$$

LMZ046-743>745-131700-
SOUTHERN LAKE MICHIGAN

STATION/POSITION TIME  TEMP    WIND        PRES    WAVE
                       AIR SEA DIR/SP/G            HT
                 (UTC) (F)     (DEG/KT/KT) (MB)    (FT)
BURNS HARBOR     1540   29     160/ 15/ 25  999.3F
MICHIGAN CITY    1540   27     150/ 18/ 25   N/A

$$

INZ004-005-014>016-021>024-131700-
NORTH CENTRAL INDIANA

CITY           SKY/WX    TMP DP  RH WIND       PRES   REMARKS
ELKHART        CLOUDY    25  10  54 SE12      29.59F WCI  14
GOSHEN         CLOUDY    24  11  57 S17       29.61F WCI  11
LOGANSPORT +   CLOUDY    28  10  47 S17G24    29.62F WCI  16
PERU/GRISSOM   CLOUDY    28   8  43 S20       29.60F WCI  15
ROCHESTER +    CLOUDY    30  14  51 S14       29.61F WCI  20
SOUTH BEND     CLOUDY    24  13  62 S16       29.57F WCI  11
WARSAW +       CLOUDY    25  12  58 S7        29.64F WCI  17

$$

INZ006>009-017-018-025>027-131700-
NORTHEAST INDIANA

CITY           SKY/WX    TMP DP  RH WIND       PRES   REMARKS
AUBURN +       CLOUDY    25  12  58 S6        29.69F WCI  18
FORT WAYNE     CLOUDY    24  13  62 S14       29.69F WCI  12
HUNTINGTON +   CLOUDY    26   8  46 S12       29.67F WCI  15
KENDALLVILLE + CLOUDY    22  13  66 S10       29.64F WCI  11

$$

INZ028-029-035-036-043>045-051>053-131700-
WEST CENTRAL INDIANA

CITY           SKY/WX    TMP DP  RH WIND       PRES   REMARKS
CRAWFORDSVL +  PTSUNNY   30  12  47 S21G31      N/A  WCI  17
GREENCASTLE +  MOSUNNY   32  10  40 S13G20    29.66F WCI  22
LAFAYETTE      CLOUDY    31  12  45 S16G22    29.59F WCI  20
TERRE HAUTE    MOSUNNY   34  12  40 S18G29    29.66F WCI  23

$$

INZ030>032-037>040-046>048-054>057-064-065-131700-
CENTRAL INDIANA

CITY           SKY/WX    TMP DP  RH WIND       PRES   REMARKS
ANDERSON       CLOUDY    27   9  46 S17G29    29.71  WCI  14
COLUMBUS       CLOUDY    28   7  40 S16G23    29.78F WCI  17
FRANKFORT +    CLOUDY    32  12  42 S20G25    29.63F WCI  20
INDIANAPOLIS   CLOUDY    32  10  40 S17       29.69F WCI  21
-EAGLE CREEK   CLOUDY    31   8  38 S12G22    29.68F WCI  22
KOKOMO +       CLOUDY    27  12  53 S20G26    29.64F WCI  13
MARION +       CLOUDY    26  11  52 S15G24    29.67F WCI  14
MT COMFORT *+  CLOUDY    27  14  59 S15G21    29.70F WCI  15
SHELBYVILLE    CLOUDY    29   9  43 S20G28    29.74F WCI  16
ZIONSVILLE +   PTSUNNY   28   8  42 S20G26    29.65F WCI  15

$$

INZ033-034-041-042-049-050-058-059-131700-
EAST CENTRAL INDIANA

CITY           SKY/WX    TMP DP  RH WIND       PRES   REMARKS
MUNCIE         CLOUDY    28   8  43 S16G24    29.69F WCI  16
RICHMOND +     CLOUDY    23  12  63 S17       29.74F WCI   9

$$

INZ060-061-067>069-081>083-085>088-131700-
SOUTHWEST INDIANA

CITY           SKY/WX    TMP DP  RH WIND       PRES   REMARKS
EVANSVILLE     SUNNY     37  15  40 S20G29    29.80F WCI  27
HUNTINGBURG +  PTSUNNY   36  15  42 S18       29.81F WCI  26
WASHINGTON +   CLOUDY    35  11  37 S18G26    29.74F WCI  24

$$

INZ062-063-066-070>080-084-089>092-131700-
SOUTH CENTRAL AND SOUTHEAST INDIANA

CITY           SKY/WX    TMP DP  RH WIND       PRES   REMARKS
BEDFORD +      PTSUNNY   32   9  37 S12       29.77F WCI  23
BLOOMINGTON    CLOUDY    32  10  40 S12G20    29.73F WCI  23
MADISON *+     CLOUDY    32   9  37 S15       29.83F WCI  22
NORTH VERNON + CLOUDY    28   9  43 S10       29.80F WCI  19
SEYMOUR +      CLOUDY    34  12  40 S14       29.79F WCI  24

$$





USA.gov is the U.S. government's official web portal to all federal, state and local government web resources and services.